Regional Weather Roundup
Issued by NWS

Home | Current Version | Previous Version | Text Only | Print | Product List | Glossary Off
Versions: 1 2 3 4 5 6 7 8 9 10 11 12 13 14 15 16 17 18 19 20 21 22 23 24 25 26 27 28 29 30 31 32 33 34 35 36 37 38 39 40 41 42 43 44 45 46 47 48 49 50

000
ASUS43 KMKX 250220
RWRWI

WISCONSIN REGIONAL WEATHER ROUNDUP
NATIONAL WEATHER SERVICE MILWAUKEE/SULLIVAN WI
800 PM CST SAT FEB 24 2018

NOTE: "FAIR" INDICATES FEW OR NO CLOUDS BELOW 12,000 FEET WITH NO
SIGNIFICANT WEATHER AND/OR OBSTRUCTIONS TO VISIBILITY.

WIZ001-002-006>008-014>016-023>028-250300-
NORTHWEST WISCONSIN

CITY           SKY/WX    TMP DP  RH WIND       PRES   REMARKS
SUPERIOR ARPT  SNOW      24  24  96 E17G23    29.62F VSB 1/2 WCI  11
ASHLAND        LGT SNOW  24  22  91 N17       29.63F FOG     WCI  11
HAYWARD        LGT SNOW  30  28  92 E7        29.56F VSB 3/4 WCI  23
SIREN          LGT SNOW  29  28  96 E3        29.57F
CUMBERLAND     SNOW      30  28  93 E6        29.54F VSB 1/2 WCI  24
RICE LAKE      SNOW      30  29  97 E7        29.57F VSB 1/2 WCI  23
CHETEK         LGT SNOW  30  29  98 E8        29.55F VSB 1   WCI  22
LADYSMITH      LGT SNOW  31  28  89 SE9       29.59F WCI  23
EAU CLAIRE     LGT SNOW  31  29  92 SE12      29.53F VSB 3/4 WCI  22
MENOMONIE      LGT SNOW  32  31  98 E6        29.55F VSB 1   WCI  26
NEW RICHMOND   LGT SNOW  30  28  92 CALM      29.57F VSB 3/4
OSCEOLA        LGT SNOW  30  30 100 E5        29.59F VSB 1   WCI  25
$$

WIZ003>005-009-010-017-018-250300-
NORTH CENTRAL WISCONSIN

CITY           SKY/WX    TMP DP  RH WIND       PRES   REMARKS
MANITOWISH WTR CLOUDY    29  22  73 E12G22    29.59F WCI  20
ARBOR VITAE    LGT SNOW  32  25  75 E17G26    29.61F WCI  21
WOODRUFF       LGT SNOW  32  25  75 E17G26    29.61F WCI  21
RHINELANDER    LGT SNOW  28  24  85 E18       29.60F FOG     WCI  15
EAGLE RIVER    CLOUDY    28  20  72 E17G31    29.61F WCI  15
LAND O LAKES   CLOUDY    29  20  70 E16G22    29.70F WCI  17
PHILLIPS       LGT SNOW  28  26  92 E14G22    29.55F WCI  17
TOMAHAWK       LGT SNOW  28  25  87 E8        29.60F WCI  20
MEDFORD        MIX PCPN  28  26  91 E18G26    29.56F WCI  16
MERRILL        LGT SNOW  29  27  92 SE15G25   29.59F WCI  17
$$

WIZ029-030-035-036-043>047-250300-
CENTRAL WISCONSIN

CITY           SKY/WX    TMP DP  RH WIND       PRES   REMARKS
WAUSAU         MIX PCPN  29  25  85 E20G28    29.59F FOG     WCI  16
MOSINEE        LGT SNOW  28  28 100 E15G24    29.61F WCI  17
MARSHFIELD     FRZ RAIN  31  29  92 E20G30    29.55F FOG     WCI  19
STEVENS POINT  MIX PCPN  29  29 100 E15G21    29.62F WCI  18
WAUPACA        LGT RAIN  33  30  88 NE12G18   29.67F WCI  25
WAUTOMA        MIX PCPN  32  30  93 E13G21    29.62F FOG     WCI  22
WISC RAPIDS    CLOUDY    32  29  88 SE15G26   29.59F WCI  22
CAMP DOUGLAS   LGT RAIN  32  32 100 E16       29.54F FOG     WCI  21
$$

WIZ011>013-019>022-031-037>040-048>050-250300-
NORTHEAST WISCONSIN

CITY           SKY/WX    TMP DP  RH WIND       PRES   REMARKS
ANTIGO         MIX PCPN  27  24  90 E25G33    29.64F WCI  12
SHAWANO        LGT SNOW  33  29  87 E12       29.69F WCI  24
OCONTO         CLOUDY    33  28  83 E8G18     29.74F WCI  25
STURGEON BAY   CLOUDY    34  29  82 E10       29.77F WCI  26
GREEN BAY      LGT RAIN  34  29  82 E8        29.72F WCI  27
MANITOWOC      LGT RAIN  34  32  92 E18       29.74F FOG     WCI  23
APPLETON       LGT RAIN  32  27  80 E12G20    29.68F WCI  23
CLINTONVILLE   MIX PCPN  32  29  89 E14       29.66F WCI  22
OSHKOSH        LGT RAIN  33  31  92 E16       29.66F FOG     WCI  23
$$

WIZ032>034-041-042-053>061-250300-
SOUTHWEST WISCONSIN

CITY           SKY/WX    TMP DP  RH WIND       PRES   REMARKS
LA CROSSE      LGT SNOW  34  32  92 SE6       29.54F FOG     WCI  29
SPARTA         MIX PCPN  32  32  99 E10G16    29.55F WCI  24
VIROQUA        CLOUDY    33  33 100 SE10      29.51F WCI  24
BOSCOBEL       LGT RAIN  38  35  89 E7        29.55F FOG     WCI  33
PRAIRIE DU CHI LGT RAIN  35  34  95 SE3       29.55F
PLATTEVILLE    FAIR      35  35 100 E17       29.51F WCI  25
$$

WIZ056-057-062-063-064-067-068-250300-
SOUTH CENTRAL WISCONSIN

CITY           SKY/WX    TMP DP  RH WIND       PRES   REMARKS
REEDSBURG      LGT RAIN  33  33 100 E8        29.54F WCI  27
BARABOO/DELLS  LGT RAIN  34  33  95 E14       29.57F WCI  24
LONE ROCK      LGT RAIN  35  35 100 E14       29.55F FOG     WCI  26
MINERAL POINT  LGT RAIN  36  36 100 E13G21    29.52F WCI  27
MADISON        RAIN      36  35  96 SE18G25   29.59F FOG     WCI  26
MIDDLETON      CLOUDY    37  37  99 SE13G20   29.57F WCI  28
WATERTOWN      LGT RAIN  36  36 100 E20G26    29.60F WCI  25
MONROE         RAIN      36  36 100 E12G20    29.55F WCI  27
JANESVILLE     LGT RAIN  37  37 100 E17       29.60F WCI  28
$$

WIZ051-052-058>065-066-070>072-250300-
SOUTHEAST WISCONSIN

CITY           SKY/WX    TMP DP  RH WIND       PRES   REMARKS
MILWAUKEE      LGT RAIN  38  37  97 SE13      29.66F FOG     WCI  30
WAUKESHA       LGT RAIN  36  34  93 E14       29.68F WCI  27
MILWAUKEE/TIMM RAIN      36  34  93 E7        29.70F WCI  30
RACINE         LGT RAIN  38  36  92 SE14      29.66F WCI  30
BURLINGTON     MIX PCPN  37  36  94 E13G20    29.64F WCI  29
KENOSHA        CLOUDY    38  36  92 SE13G25   29.65F FOG     WCI  30
FOND DU LAC    MIX PCPN  36  32  85 SE18      29.66F WCI  26
SHEBOYGAN      LGT RAIN  34  34 100 E16G22    29.72F FOG     WCI  24
WEST BEND      LGT SNOW  34  34 100 E12G18    29.68F WCI  25
JUNEAU         CLOUDY    35  34  96 E21G30    29.61F FOG     WCI  24
$$

LSZ147-162-250300-
LAKE SUPERIOR

STATION/POSITION TIME  TEMP    WIND        PRES    WAVE
                       AIR SEA DIR/SP/G            HT/PER
                 (UTC) (F)     (DEG/KT/KT) (MB)    (FT/S)
DEVILS ISLAND    0200   26      70/ 23/ 27 1006.8F
SAXON HARBOR     0130   26      60/  7/  8 1005.4F
$$

LMZ867-665-643>646-250300-
LAKE MICHIGAN

STATION/POSITION TIME  TEMP    WIND        PRES    WAVE
                       AIR SEA DIR/SP/G            HT/PER
                 (UTC) (F)     (DEG/KT/KT) (MB)    (FT/S)
NORTHPORT PIER   0140   34                 1009.8F
KEWAUNEE LAKESHO 0154   36     110/ 17/ 20 1007.3F
SHEBOYGAN LAKESH 0200   35     110/ 17/ 20 1006.9F
PORT WASHINGTON  0140   36      90/ 10/ 13 1008.1F
KENOSHA   LAKESH 0200   37     140/ 10/ 12 1004.7
$$

TC  - TEMPERATURE IN CELSIUS
VSB - VISIBILITY IN STATUTE MILES
WCI - WIND CHILL INDEX
HX  - HEAT INDEX





USA.gov is the U.S. government's official web portal to all federal, state and local government web resources and services.